Regional Weather Roundup
Issued by NWS

Home | Current Version | Previous Version | Text Only | Print | Product List | Glossary Off
Versions: 1 2 3 4 5 6 7 8 9 10 11 12 13 14 15 16 17 18 19 20 21 22 23 24 25 26 27 28 29 30 31 32 33 34 35 36 37 38 39 40 41 42 43 44 45 46 47 48 49 50

000
ASUS43 KIND 031509
RWRIN

WEATHER ROUNDUP FOR INDIANA
NATIONAL WEATHER SERVICE INDIANAPOLIS IN
1100 AM EDT MON AUG 03 2015

NOTE: "FAIR" INDICATES FEW OR NO CLOUDS BELOW 12,000 FEET WITH NO
SIGNIFICANT WEATHER AND/OR OBSTRUCTIONS TO VISIBILITY.

* - STATION DOES NOT REPORT WEATHER SUCH AS PRECIPITATION OR FOG.

+ - STATION NOT QUALITY CONTROLLED BY THE NATIONAL WEATHER SERVICE.
    USE DATA WITH CAUTION...ESPECIALLY DEWPOINT AND RELATIVE
    HUMIDITY OBSERVATIONS.

INZ001>003-010>013-019-020-031600-
NORTHWEST INDIANA

CITY           SKY/WX    TMP DP  RH WIND       PRES   REMARKS
GARY /AIRPORT/ MOSUNNY   77  63  61 N9        29.85R
KNOX *+        SUNNY     73  63  68 NW7       29.83S
LA PORTE +     SUNNY     77  68  73 NW13G21   29.85R
MICHIGAN CITY+ MOSUNNY   73  70  88 NW9       29.85R
MONTICELLO +   SUNNY     76  71  86 NW6       29.83R
RENSSELAER +   SUNNY     77  66  69 NW3       29.85R
VALPARAISO     SUNNY     77  65  66 NW7       29.85R

$$

LMZ046-743>745-031600-
SOUTHERN LAKE MICHIGAN

STATION/POSITION TIME  TEMP    WIND        PRES    WAVE
                       AIR SEA DIR/SP/G            HT
                 (UTC) (F)     (DEG/KT/KT) (MB)    (FT)
BURNS HARBOR     1400   72     340/  9/ 10 1010.8R
MICHIGAN CITY    1400   72     280/  7/  9   N/A
5NW MICH CITY    1500   71 74  330/ 10/ 12   N/A     2

$$

INZ004-005-014>016-021>024-031600-
NORTH CENTRAL INDIANA

CITY           SKY/WX    TMP DP  RH WIND       PRES   REMARKS
ELKHART        SUNNY     75  64  69 W6        29.83S
GOSHEN         MOSUNNY   72  66  81 VRB5      29.83S
LOGANSPORT +   SUNNY     75  63  64 N5        29.84S
PERU/GRISSOM   PTSUNNY   75  70  83 NW5       29.84R
ROCHESTER +    SUNNY     77  68  73 NW5       29.84S
SOUTH BEND     SUNNY     77  66  68 W10       29.84R
WARSAW +       PTSUNNY   70  64  83 CALM      29.84S

$$

INZ006>009-017-018-025>027-031600-
NORTHEAST INDIANA

CITY           SKY/WX    TMP DP  RH WIND       PRES   REMARKS
ANGOLA *+      PTSUNNY   72  64  78 W6        29.83S
AUBURN +       CLOUDY    70  63  78 W7        29.85S
FORT WAYNE     PTSUNNY   73  66  78 W9        29.85R
HUNTINGTON +   CLOUDY    72  67  86 W5        29.84S

$$

INZ028-029-035-036-043>045-051>053-031600-
WEST CENTRAL INDIANA

CITY           SKY/WX    TMP DP  RH WIND       PRES   REMARKS
CRAWFORDSVL +  MOSUNNY   78  69  74 SW5         N/A
GREENCASTLE +  SUNNY     81  68  65 CALM      29.86R
LAFAYETTE      SUNNY     80  70  71 W5        29.83R
TERRE HAUTE    SUNNY     83  70  64 SW7       29.84S

$$

INZ030>032-037>040-046>048-054>057-064-065-031600-
CENTRAL INDIANA

CITY           SKY/WX    TMP DP  RH WIND       PRES   REMARKS
COLUMBUS       MOSUNNY   75  59  57 S18       29.88F
FRANKFORT +      N/A     80  78  96 SW8       29.86R
GREENWOOD *+   CLOUDY    77  66  69 S9        29.87S
INDIANAPOLIS   PTSUNNY   80  71  74 SW8       29.84S
-EAGLE CREEK   PTSUNNY   78  71  79 VRB3      29.84S
KOKOMO *+      CLOUDY    75  70  83 S7        29.84R
MARION +       CLOUDY    71  66  84 SW10      29.85R
MT COMFORT *+  CLOUDY    73 N/A N/A S8        29.87R
SHELBYVILLE    CLOUDY    76  64  66 S16G22    29.86F
ZIONSVILLE +   CLOUDY    77  71  81 SW5       29.86S

$$

INZ033-034-041-042-049-050-058-059-031600-
EAST CENTRAL INDIANA

CITY           SKY/WX    TMP DP  RH WIND       PRES   REMARKS
MUNCIE         CLOUDY    70  66  87 S13G20    29.85S

$$

INZ060-061-067>069-081>083-085>088-031600-
SOUTHWEST INDIANA

CITY           SKY/WX    TMP DP  RH WIND       PRES   REMARKS
EVANSVILLE     SUNNY     86  68  54 W8        29.89S
HUNTINGBURG *+ SUNNY     82  70  65 SW9       29.87F
WASHINGTON +   SUNNY     82  67  60 W6        29.86S

$$

INZ062-063-066-070>080-084-089>092-031600-
SOUTH CENTRAL AND SOUTHEAST INDIANA

CITY           SKY/WX    TMP DP  RH WIND       PRES   REMARKS
BLOOMINGTON    SUNNY     82  71  69 VRB3      29.87S
MADISON *+     SUNNY     77  61  57 S12G20    29.92S
NORTH VERNON + SUNNY     79  63  57 S15       29.90S
SEYMOUR +      PTSUNNY   77  63  61 S9G17     29.89S

$$




USA.gov is the U.S. government's official web portal to all federal, state and local government web resources and services.